CW1020 Weather Reports


Display with metric or nautical units.
time (UTC)temp
F
wind
direction
speed
MPH
gust
MPH
rain 1hr
in
rain 24hr
in
rain mn
in
humidity
%
barometer
mb
20260504011504 60 314 9.0 18.0 0.00 0.00 0.00 58 1011.5
20260504011003 61 298 11.0 13.0 0.00 0.00 0.00 57 1011.6
20260504010503 61 280 10.0 14.0 0.00 0.00 0.00 57 1011.5
20260504010005 61 310 10.0 17.0 0.00 0.00 0.00 57 1011.6
20260504005504 61 298 10.0 12.0 0.00 0.00 0.00 57 1011.8
20260504005004 61 307 10.0 14.0 0.00 0.00 0.00 56 1011.7
20260504004503 61 304 10.0 15.0 0.00 0.00 0.00 57 1011.7
20260504004003 60 312 9.0 19.0 0.00 0.00 0.00 56 1011.6
20260504003503 61 316 10.0 14.0 0.00 0.00 0.00 56 1011.6
20260504003004 61 294 10.0 12.0 0.00 0.00 0.00 56 1011.5
20260504002003 62 291 9.0 16.0 0.00 0.00 0.00 56 1011.4
20260504001504 62 300 10.0 14.0 0.00 0.00 0.00 57 1011.4
20260504001003 61 309 11.0 16.0 0.00 0.00 0.00 57 1011.4
20260504000504 61 299 10.0 14.0 0.00 0.00 0.00 57 1011.3
20260504000003 62 299 11.0 14.0 0.00 0.00 0.00 56 1011.6
20260503235003 62 311 11.0 19.0 0.00 0.00 0.00 57 1011.7
20260503234503 61 320 10.0 16.0 0.00 0.00 0.00 57 1011.7
20260503234004 62 308 11.0 14.0 0.00 0.00 0.00 57 1011.7
20260503233503 62 308 12.0 16.0 0.00 0.00 0.00 57 1011.7
20260503233005 62 310 12.0 18.0 0.00 0.00 0.00 57 1011.7
20260503232503 62 301 13.0 19.0 0.00 0.00 0.00 56 1011.7
20260503232004 62 295 14.0 18.0 0.00 0.00 0.00 58 1011.7
20260503231504 62 318 13.0 19.0 0.00 0.00 0.00 58 1011.7
20260503231003 62 309 12.0 18.0 0.00 0.00 0.00 58 1011.6
20260503230504 62 306 12.0 17.0 0.00 0.00 0.00 58 1011.6
20260503230003 62 305 12.0 16.0 0.00 0.00 0.00 58 1011.8
20260503225504 62 311 12.0 16.0 0.00 0.00 0.00 56 1011.9
20260503225003 63 316 13.0 18.0 0.00 0.00 0.00 57 1011.9
20260503224503 63 317 14.0 18.0 0.00 0.00 0.00 57 1012.0
20260503224005 62 317 13.0 18.0 0.00 0.00 0.00 57 1011.9
20260503223503 63 318 12.0 19.0 0.00 0.00 0.00 56 1011.9
20260503223004 63 320 12.0 18.0 0.00 0.00 0.00 58 1012.0
20260503222503 62 319 13.0 18.0 0.00 0.00 0.00 59 1011.9
20260503222005 62 319 13.0 20.0 0.00 0.00 0.00 58 1012.0
20260503221503 62 320 12.0 22.0 0.00 0.00 0.00 57 1012.0
20260503221003 62 316 10.0 17.0 0.00 0.00 0.00 58 1012.1
20260503220504 62 307 12.0 16.0 0.00 0.00 0.00 58 1012.1
20260503220003 63 316 12.0 20.0 0.00 0.00 0.00 58 1012.2
20260503215504 62 317 12.0 20.0 0.00 0.00 0.00 59 1012.1
20260503215003 62 315 13.0 16.0 0.00 0.00 0.00 58 1012.2
20260503214503 62 319 13.0 19.0 0.00 0.00 0.00 59 1012.2
20260503214004 63 314 14.0 15.0 0.00 0.00 0.00 58 1012.1
20260503213503 62 315 15.0 24.0 0.00 0.00 0.00 59 1012.0
20260503213003 62 317 14.0 21.0 0.00 0.00 0.00 58 1012.1
20260503212505 63 313 15.0 18.0 0.00 0.00 0.00 57 1012.0
20260503212005 63 318 14.0 22.0 0.00 0.00 0.00 57 1012.1
20260503211006 64 319 12.0 21.0 0.00 0.00 0.00 56 1011.9
20260503210507 64 319 14.0 13.0 0.00 0.00 0.00 57 1011.9
20260503210006 63 317 15.0 19.0 0.00 0.00 0.00 56 1012.1
20260503205506 64 316 14.0 16.0 0.00 0.00 0.00 56 1012.2
20260503205006 64 314 12.0 21.0 0.00 0.00 0.00 57 1012.1
20260503204006 65 320 12.0 18.0 0.00 0.00 0.00 54 1012.2
20260503203505 64 320 10.0 18.0 0.00 0.00 0.00 54 1012.3
20260503203005 64 309 9.0 16.0 0.00 0.00 0.00 56 1012.3
20260503202006 64 317 10.0 18.0 0.00 0.00 0.00 54 1012.2
20260503201506 65 323 11.0 17.0 0.00 0.00 0.00 53 1012.3
20260503200506 65 319 11.0 15.0 0.00 0.00 0.00 51 1012.4
20260503200006 66 319 10.0 17.0 0.00 0.00 0.00 49 1012.8
20260503195006 65 317 8.0 16.0 0.00 0.00 0.00 50 1012.7
20260503194505 65 312 5.0 14.0 0.00 0.00 0.00 50 1012.9
20260503194006 64 322 4.0 15.0 0.00 0.00 0.00 51 1013.0
20260503193506 64 324 4.0 8.0 0.00 0.00 0.00 50 1013.0
20260503193007 64 289 4.0 9.0 0.00 0.00 0.00 51 1013.1
20260503192506 65 329 5.0 8.0 0.00 0.00 0.00 50 1013.1
20260503192006 65 305 5.0 9.0 0.00 0.00 0.00 50 1013.1
20260503191505 65 286 7.0 10.0 0.00 0.00 0.00 51 1013.2
20260503191006 64 318 8.0 13.0 0.00 0.00 0.00 53 1013.1
20260503190506 64 319 9.0 14.0 0.00 0.00 0.00 53 1013.3
20260503190007 65 313 8.0 12.0 0.00 0.00 0.00 51 1013.2
20260503185506 64 315 8.0 13.0 0.00 0.00 0.00 50 1013.2
20260503184007 63 319 10.0 13.0 0.00 0.00 0.00 56 1013.3
20260503183505 62 318 9.0 16.0 0.00 0.00 0.00 56 1013.3
20260503183006 62 321 11.0 13.0 0.00 0.00 0.00 58 1013.3
20260503182506 61 312 11.0 14.0 0.00 0.00 0.00 59 1013.4
20260503182006 61 317 12.0 15.0 0.00 0.00 0.00 61 1013.5
20260503181506 60 316 12.0 15.0 0.00 0.00 0.00 61 1013.6
20260503181006 60 318 12.0 18.0 0.00 0.00 0.00 64 1013.5
20260503180505 58 314 12.0 16.0 0.00 0.00 0.00 65 1013.6
20260503180006 59 322 10.0 18.0 0.00 0.00 0.00 65 1013.7
20260503175006 58 320 13.0 18.0 0.00 0.00 0.00 64 1013.5
20260503174506 59 320 12.0 20.0 0.00 0.00 0.00 64 1013.4
20260503174006 59 320 13.0 18.0 0.00 0.00 0.00 64 1013.5
20260503173506 59 314 12.0 19.0 0.00 0.00 0.00 64 1013.3
20260503173502 59 313 13.0 13.0 0.00 0.00 0.00 64 1013.3
20260503173006 59 318 12.0 21.0 0.00 0.00 0.00 63 1013.3
20260503171006 64 329 7.0 13.0 0.00 0.00 0.00 49 1013.2
20260503170507 69 323 8.0 13.0 0.00 0.00 0.00 38 1013.2
20260503151002 65 85 7.0 15.0 0.00 0.00 0.00 27 1012.9
20260503131002 47 152 4.0 7.0 0.00 0.00 0.00 52 1012.6
20260503130503 47 151 4.0 7.0 0.00 0.00 0.00 52 1012.7
20260503110503 48 0 0.0 0.0 0.00 0.00 0.00 50 1013.3
20260503090503 55 161 1.0 5.0 0.00 0.00 0.00 38 1014.0
20260503081503 58 168 2.0 5.0 0.00 0.00 0.00 34 1014.1
20260503081003 58 100 2.0 3.0 0.00 0.00 0.00 34 1014.0
20260503080502 59 94 3.0 3.0 0.00 0.00 0.00 33 1014.3
20260503072503 65 201 3.0 6.0 0.00 0.00 0.00 25 1014.3
20260503072002 64 243 4.0 7.0 0.00 0.00 0.00 25 1014.3
20260503071504 64 238 4.0 5.0 0.00 0.00 0.00 26 1014.1
20260503071003 64 249 2.0 7.0 0.00 0.00 0.00 26 1014.0
20260503055004 66 278 6.0 12.0 0.00 0.00 0.00 25 1014.0
20260503054502 66 310 4.0 10.0 0.00 0.00 0.00 25 1014.0
20260503054003 66 311 3.0 8.0 0.00 0.00 0.00 26 1014.2
20260503053003 65 286 5.0 9.0 0.00 0.00 0.00 27 1014.2
20260503052503 65 304 6.0 6.0 0.00 0.00 0.00 27 1014.2
20260503052003 66 272 6.0 10.0 0.00 0.00 0.00 27 1014.2
20260503051003 66 250 5.0 8.0 0.00 0.00 0.00 26 1014.2
20260503050504 65 234 6.0 9.0 0.00 0.00 0.00 26 1014.2
20260503050004 64 210 7.0 10.0 0.00 0.00 0.00 27 1014.2
20260503045503 64 210 4.0 13.0 0.00 0.00 0.00 28 1014.2
20260503045003 64 216 0.0 12.0 0.00 0.00 0.00 28 1014.3
20260503044503 64 31 0.0 2.0 0.00 0.00 0.00 28 1014.2
20260503044003 64 0 1.0 0.0 0.00 0.00 0.00 28 1014.3
20260503043003 66 124 2.0 3.0 0.00 0.00 0.00 27 1014.0
20260503042003 66 160 2.0 4.0 0.00 0.00 0.00 25 1013.8
20260503041503 66 195 2.0 6.0 0.00 0.00 0.00 26 1013.7
20260503040503 66 186 2.0 6.0 0.00 0.00 0.00 26 1013.7
20260503040005 66 127 3.0 3.0 0.00 0.00 0.00 27 1013.6
20260503035503 66 153 4.0 8.0 0.00 0.00 0.00 26 1013.5
20260503035003 66 181 4.0 9.0 0.00 0.00 0.00 26 1013.5
20260503034504 66 154 4.0 8.0 0.00 0.00 0.00 26 1013.3
20260503034003 66 185 4.0 6.0 0.00 0.00 0.00 27 1013.2
20260503033004 67 172 6.0 12.0 0.00 0.00 0.00 26 1013.1
20260503032503 68 175 7.0 11.0 0.00 0.00 0.00 26 1013.0
20260503032003 68 181 7.0 12.0 0.00 0.00 0.00 26 1013.1
20260503031504 68 174 6.0 15.0 0.00 0.00 0.00 26 1013.1
20260503031004 68 163 6.0 13.0 0.00 0.00 0.00 26 1013.1
20260503030504 69 167 7.0 11.0 0.00 0.00 0.00 26 1013.1
20260503024503 70 177 8.0 10.0 0.00 0.00 0.00 24 1012.9
20260503024003 70 177 8.0 17.0 0.00 0.00 0.00 24 1012.9
20260503023505 70 178 7.0 14.0 0.00 0.00 0.00 23 1012.8
20260503023004 71 182 7.0 11.0 0.00 0.00 0.00 23 1012.9
20260503022503 71 167 8.0 17.0 0.00 0.00 0.00 23 1012.8
20260503022004 72 179 6.0 13.0 0.00 0.00 0.00 23 1012.9
20260503021504 72 186 5.0 14.0 0.00 0.00 0.00 23 1013.0
20260503021003 72 186 6.0 8.0 0.00 0.00 0.00 23 1013.1
20260503020504 73 170 8.0 8.0 0.00 0.00 0.00 22 1013.0
20260503020004 73 153 8.0 15.0 0.00 0.00 0.00 22 1013.1
20260503015503 73 159 6.0 13.0 0.00 0.00 0.00 22 1013.3
20260503015003 74 173 6.0 14.0 0.00 0.00 0.00 22 1013.2
20260503014003 74 160 7.0 12.0 0.00 0.00 0.00 22 1013.2
20260503013004 74 150 6.0 17.0 0.00 0.00 0.00 23 1013.3
20260503012003 74 193 7.0 12.0 0.00 0.00 0.00 24 1013.3